Powrót do katalogu

DELTA 1 DEB

AktywnyPO
NORAD 8004·DEBRIS·🇺🇸 United States

Wystrzelony Jul 23, 1972 z Vandenberg Space Force Base

Loading…

Następne Przeloty (najbliższe 24 godziny)

TLE

ŚwieżeSource: Space-Track

Epoka: Sep 14, 2026, 11:07 UTC

1 08004U 72058DF  26257.46356591  .00002253  00000-0  56621-3 0  9990
2 08004  97.5707 253.3862 0180941 348.0044  11.6866 14.42709189787672

Śledź DELTA 1 DEB w czasie rzeczywistym z AllMySat

Download on the App Store